#timestamp,LO_Frequency,Hit,StdDev 
1581019555.7,286047001.1,P
1581019575.5,286046998.3,P
1581019595.4,286047000.5,N
1581019615.2,286047001.9,N
1581019635.1,286047004.3,Y
1581019636.0,286047004.3,P
1581019655.8,286047004.2,N
1581019675.6,286047004.1,N
1581019695.5,286047003.9,N
1581019715.3,286047001.5,N
1581019735.1,286047003.9,N
1581019755.9,286047002.1,N
1581019775.7,286047002.1,N
1581019795.6,286047001.8,N
1581019815.4,286047001.9,N
1581019835.2,286047001.5,N
1581019855.1,286047001.3,N
1581019856.0,286047001.3,N
1581019875.8,286047001.4,N
1581019895.7,286047003.9,Y
1581019915.5,286046999.7,P
1581019935.3,286047001.7,N
1581019955.2,286047003.3,N
1581019975.0,286047009.2,Y
1581019975.9,286047009.2,P
1581019995.8,286047007.3,N
1581020015.6,286047008.1,N
1581020035.4,286047007.8,N
1581020055.3,286047008.8,Y
1581020075.1,286046999.0,P
1581020095.8,286046997.1,N
1581020115.7,286046999.6,N
1581020135.5,286046998.4,N
1581020155.4,286046999.6,N
1581020175.2,286046999.6,N
1581020195.0,286046999.0,N
1581020195.9,286046999.0,N
1581020215.8,286046999.2,N
1581020235.6,286046999.6,N
1581020255.4,286046997.2,N
1581020275.3,286046997.7,N
1581020295.1,286046997.9,N
1581020315.9,286046995.0,N
1581020335.7,286046996.1,N
1581020355.5,286046996.4,N
1581020375.4,286046995.3,N
1581020395.2,286046995.4,N
1581020415.0,286046995.4,N
1581020416.0,286046995.4,N
1581020435.8,286046996.0,N
1581020455.6,286046995.9,N
1581020475.5,286046993.8,N
1581020495.3,286046993.5,N
1581020515.1,286046995.1,N
1581020535.9,286046995.6,N
1581020555.7,286046997.7,N
1581020575.6,286046997.2,N
1581020595.4,286046995.4,N
1581020615.2,286046993.3,N
1581020635.1,286046993.4,Y
1581020636.0,286046993.4,P
1581020655.8,286046998.4,N
1581020675.6,286047001.0,N
1581020695.5,286046998.9,N
1581020715.3,286046999.3,N
1581020735.2,286046999.0,N
1581020755.9,286046999.0,N
1581020775.7,286046999.3,N
1581020795.6,286046998.9,N
1581020815.4,286046998.6,N
1581020835.2,286047000.9,N
1581020855.1,286047000.6,N
1581020856.0,286047000.6,N
1581020875.8,286047000.4,N
1581020895.7,286046999.7,N
1581020915.5,286047002.5,N
1581020935.3,286047002.7,N
1581020955.2,286046998.1,N
1581020975.9,286047001.2,N
1581020995.7,286046998.3,N
1581021015.6,286046998.6,N
1581021035.4,286046998.8,N
1581021055.3,286046999.0,N
1581021075.1,286046998.4,N
1581021076.0,286046998.4,N
1581021095.8,286046996.7,N
1581021115.7,286046999.2,N
1581021135.5,286046996.8,N
1581021155.3,286046997.4,N
1581021175.2,286046997.9,N
1581021195.0,286046995.1,N
1581021195.9,286046995.1,Y
1581021215.8,286046996.7,P
1581021235.6,286046997.3,N
1581021255.4,286046997.9,N
1581021275.3,286046997.8,N
1581021295.1,286046997.3,Y
1581021315.9,286046998.8,P
1581021335.7,286046998.4,P
1581021355.5,286047000.9,N
1581021375.4,286047000.3,N
1581021395.2,286047000.9,N
1581021415.0,286047000.2,N
1581021415.9,286047000.2,N
1581021435.8,286047001.0,N
1581021455.6,286047001.1,N
1581021475.5,286047000.6,N
1581021495.3,286047000.8,N
1581021515.1,286046999.8,N
1581021535.9,286047001.9,N
1581021555.7,286047003.9,Y
1581021575.5,286047002.4,P
1581021595.4,286047002.2,N
1581021615.2,286047001.5,N
1581021635.1,286047003.0,Y
1581021636.0,286047003.0,P
1581021655.8,286047004.0,P
1581021675.6,286047001.5,N
1581021695.5,286047002.2,N
1581021715.3,286047001.9,N
1581021735.1,286047002.6,N
1581021755.9,286047002.3,N
1581021775.7,286046999.7,N
1581021795.6,286047000.0,N
1581021815.4,286046999.8,N
1581021835.2,286047000.0,N
1581021855.1,286047001.5,N
1581021856.0,286047001.5,N
1581021875.8,286047001.3,N
1581021895.6,286047004.3,Y
1581021915.5,286047001.3,P
1581021935.3,286047004.4,P
1581021955.2,286047001.8,N
1581021975.9,286047001.3,N
1581021995.7,286047005.6,Y
1581022015.6,286047001.4,P
1581022035.4,286046999.7,N
1581022055.3,286047002.2,N
1581022075.1,286047000.3,N
1581022076.0,286047000.3,N
1581022095.8,286046999.9,N
1581022115.7,286047000.8,N
1581022135.5,286047001.2,N
1581022155.3,286046996.6,Y
1581022175.2,286046997.6,P
1581022195.0,286046995.4,N
1581022195.9,286046995.4,N
1581022215.8,286046998.0,N
1581022235.6,286046997.2,N
1581022255.4,286046997.1,N
1581022275